period_start,C,m1,H,J0,J1,J2,J3,J4,J5,JA,JB,JC,JD,JJ,JK,JN,#
2015-11-19 00:03:23,0.22,1.47,0.00,15.01,19.73,23.61,15.22,47.92,1032.73,2064.47,3000.70,2867.59,3151.59,599.79,622.02,40.42,0000 0000 0000 0000 000000
2015-11-19 00:08:24,0.22,1.48,0.00,15.02,19.72,23.59,15.24,47.73,1032.73,2064.83,2997.10,2865.00,3148.74,599.91,622.13,40.47,0000 0000 0000 0000 000000
2015-11-19 00:13:26,0.18,1.49,0.00,15.00,19.71,23.60,15.18,47.93,1032.73,2064.81,2993.61,2862.40,3145.90,599.94,622.23,40.52,0000 0000 0000 0000 000000
2015-11-19 00:18:27,0.20,1.50,0.00,15.04,19.69,23.63,15.21,47.98,1032.73,2064.90,2990.15,2859.89,3143.08,599.63,622.09,40.57,0000 0000 0000 0000 000000
2015-11-19 00:23:28,0.19,1.51,0.00,15.03,19.69,23.61,15.25,47.78,1032.73,2064.94,2986.62,2857.33,3140.27,600.19,622.33,40.62,0000 0000 0000 0000 000000
2015-11-19 00:28:29,0.19,1.52,0.00,15.02,19.69,23.56,15.29,47.90,1032.70,2064.97,2983.09,2854.76,3137.47,600.10,622.33,40.67,0000 0000 0000 0000 000000
2015-11-19 00:33:31,0.19,1.53,0.00,15.02,19.67,23.59,15.24,47.84,1032.69,2064.97,2979.46,2852.16,3134.65,600.11,622.35,40.72,0000 0000 0000 0000 000000
2015-11-19 00:38:32,0.20,1.54,0.00,15.03,19.67,23.60,15.23,47.74,1032.68,2064.96,2975.71,2849.47,3131.74,599.83,621.97,40.77,0000 0000 0000 0000 000000
2015-11-19 00:43:33,0.20,1.55,0.00,15.04,19.67,23.60,15.26,48.02,1032.50,2064.97,2971.96,2846.73,3128.78,599.91,621.87,40.82,0000 0000 0000 0000 000000
2015-11-19 00:48:35,0.20,1.56,0.00,15.02,19.67,23.63,15.19,47.87,1032.39,2064.97,2968.28,2844.06,3125.82,600.20,622.26,40.87,0000 0000 0000 0000 000000
2015-11-19 00:53:36,0.19,1.57,0.00,15.04,19.67,23.61,15.23,47.76,1032.44,2064.98,2964.69,2841.42,3123.00,600.39,622.47,40.92,0000 0000 0000 0000 000000
2015-11-19 00:58:37,0.19,1.58,0.00,15.05,19.66,23.62,15.22,47.92,1032.43,2064.98,2961.12,2838.85,3120.12,600.03,622.03,40.97,0000 0000 0000 0000 000000
2015-11-19 01:03:39,0.20,1.59,0.00,15.03,19.65,23.60,15.24,47.98,1032.43,2064.98,2957.42,2836.18,3117.16,599.98,622.05,41.02,0000 0000 0000 0000 000000
2015-11-19 01:08:40,0.20,1.60,0.00,15.06,19.65,23.60,15.25,48.04,1032.28,2064.99,2953.80,2833.54,3114.25,600.06,621.94,41.07,0000 0000 0000 0000 000000
2015-11-19 01:13:41,0.20,1.61,0.00,15.08,19.65,23.65,15.22,48.15,1032.24,2064.99,2950.17,2830.86,3111.30,599.88,621.73,41.12,0000 0000 0000 0000 000000
2015-11-19 01:18:43,0.22,1.62,0.00,15.08,19.64,23.63,15.25,48.58,1031.99,2064.99,2946.39,2827.92,3108.07,600.22,621.90,41.17,0000 0000 0000 0000 000000
2015-11-19 01:23:44,0.20,1.63,0.00,15.06,19.64,23.64,15.25,48.63,1031.78,2064.99,2942.67,2824.97,3104.79,600.26,621.80,41.22,0000 0000 0000 0000 000000
2015-11-19 01:28:45,0.19,1.64,0.00,15.08,19.64,23.60,15.23,48.45,1031.76,2064.99,2939.29,2822.45,3102.00,599.83,621.35,41.28,0000 0000 0000 0000 000000
2015-11-19 01:33:46,0.18,1.65,0.00,15.06,19.64,23.61,15.27,48.62,1031.72,2064.99,2936.04,2820.04,3099.34,599.89,621.56,41.33,0000 0000 0000 0000 000000
2015-11-19 01:38:47,0.17,1.66,0.00,15.03,19.64,23.60,15.20,48.46,1031.75,2064.99,2932.79,2817.64,3096.71,599.71,621.34,41.38,0000 0000 0000 0000 000000
2015-11-19 01:43:49,0.18,1.67,0.00,15.03,19.64,23.60,15.26,48.61,1031.72,2064.99,2929.43,2815.33,3094.03,600.42,621.99,41.43,0000 0000 0000 0000 000000
2015-11-19 01:48:50,0.19,1.68,0.00,15.03,19.64,23.56,15.19,48.55,1031.75,2064.99,2926.07,2812.84,3091.21,600.16,621.80,41.48,0000 0000 0000 0000 000000
2015-11-19 01:53:51,0.19,1.69,0.00,14.99,19.64,23.60,15.30,48.63,1031.74,2064.99,2922.70,2810.39,3088.51,600.13,621.88,41.53,0000 0000 0000 0000 000000
2015-11-19 01:58:52,0.21,1.70,0.00,15.00,19.63,23.60,15.22,48.56,1031.75,2064.99,2919.15,2807.57,3085.42,600.06,621.75,41.58,0000 0000 0000 0000 000000
2015-11-19 02:03:54,0.20,1.71,0.00,15.00,19.62,23.58,15.24,48.47,1031.75,2064.99,2915.55,2804.75,3082.35,600.30,622.04,41.63,0000 0000 0000 0000 000000
2015-11-19 02:08:55,0.20,1.72,0.00,14.98,19.62,23.59,15.26,48.73,1031.71,2064.99,2912.12,2802.10,3079.50,600.14,621.86,41.68,0000 0000 0000 0000 000000
2015-11-19 02:13:56,0.22,1.73,0.00,14.97,19.62,23.56,15.19,48.58,1031.75,2064.99,2908.38,2799.18,3076.31,599.96,621.69,41.73,0000 0000 0000 0000 000000
2015-11-19 02:18:57,0.21,1.74,0.00,14.98,19.62,23.55,15.25,48.52,1031.77,2064.99,2904.60,2796.33,3073.26,599.93,621.69,41.78,0000 0000 0000 0000 000000
2015-11-19 02:23:59,0.19,1.75,0.00,15.00,19.62,23.55,15.25,48.08,1032.05,2064.99,2901.01,2793.70,3070.35,599.91,621.87,41.83,0000 0000 0000 0000 000000
2015-11-19 02:29:00,0.22,1.76,0.00,14.98,19.60,23.58,15.16,47.97,1031.96,2064.99,2897.45,2790.94,3067.37,599.61,621.40,41.88,0000 0000 0000 0000 000000
2015-11-19 02:34:01,0.21,1.77,0.00,14.99,19.59,23.54,15.17,47.98,1031.87,2064.99,2893.85,2788.17,3064.33,599.67,621.51,41.93,0000 0000 0000 0000 000000
2015-11-19 02:39:03,0.19,1.79,0.00,15.03,19.59,23.51,15.20,47.75,1031.79,2064.99,2890.18,2785.51,3061.33,599.85,621.78,41.98,0000 0000 0000 0000 000000
2015-11-19 02:44:04,0.19,1.80,0.00,14.99,19.59,23.52,15.18,47.33,1031.76,2064.99,2886.78,2783.02,3058.58,599.96,621.68,42.03,0000 0000 0000 0000 000000
2015-11-19 02:49:05,0.19,1.81,0.00,15.02,19.59,23.56,15.22,47.77,1031.78,2064.99,2883.36,2780.45,3055.85,600.18,621.88,42.08,0000 0000 0000 0000 000000
2015-11-19 02:54:06,0.21,1.82,0.00,15.04,19.59,23.55,15.18,48.03,1031.77,2064.99,2879.81,2777.74,3052.86,599.87,621.50,42.13,0000 0000 0000 0000 000000
2015-11-19 02:59:07,0.22,1.83,0.00,15.04,19.59,23.53,15.21,48.08,1031.76,2064.99,2876.20,2774.98,3049.79,599.76,621.16,42.18,0000 0000 0000 0000 000000
2015-11-19 03:04:08,0.21,1.84,0.00,15.04,19.59,23.51,15.19,47.96,1031.75,2064.99,2872.49,2772.22,3046.77,599.71,621.30,42.23,0000 0000 0000 0000 000000
2015-11-19 03:09:10,0.21,1.85,0.00,15.04,19.60,23.53,15.30,47.96,1031.75,2064.99,2868.75,2769.43,3043.66,600.30,621.93,42.29,0000 0000 0000 0000 000000
2015-11-19 03:14:11,0.21,1.86,0.00,15.07,19.62,23.56,15.25,47.73,1031.75,2064.99,2865.06,2766.78,3040.75,600.06,621.62,42.34,0000 0000 0000 0000 000000
2015-11-19 03:19:13,0.22,1.87,0.00,15.07,19.62,23.54,15.18,47.67,1031.75,2064.99,2861.32,2764.04,3037.67,599.68,621.23,42.39,0000 0000 0000 0000 000000
2015-11-19 03:24:14,0.21,1.88,0.00,15.07,19.62,23.55,15.22,47.75,1031.75,2064.99,2857.66,2761.26,3034.62,599.89,621.44,42.44,0000 0000 0000 0000 000000
2015-11-19 03:29:15,0.20,1.89,0.00,15.10,19.62,23.59,15.10,47.48,1031.75,2064.99,2854.05,2758.63,3031.72,599.55,620.99,42.49,0000 0000 0000 0000 000000
2015-11-19 03:34:17,0.21,1.90,0.00,15.10,19.64,23.57,15.23,47.74,1031.75,2064.99,2850.46,2755.93,3028.76,600.05,621.46,42.54,0000 0000 0000 0000 000000
2015-11-19 03:39:18,0.20,1.91,0.00,15.12,19.64,23.55,15.12,47.08,1031.76,2064.99,2846.81,2753.30,3025.78,599.56,621.10,42.59,0000 0000 0000 0000 000000
2015-11-19 03:44:19,0.21,1.92,0.00,15.10,19.65,23.56,15.21,47.54,1031.76,2064.99,2843.22,2750.73,3022.86,600.20,621.70,42.64,0000 0000 0000 0000 000000
2015-11-19 03:49:21,0.22,1.93,0.00,15.15,19.67,23.57,15.14,47.57,1031.76,2064.99,2839.44,2747.99,3019.76,599.92,621.38,42.69,0000 0000 0000 0000 000000
2015-11-19 03:54:22,0.22,1.95,0.00,15.15,19.67,23.53,15.22,47.44,1031.79,2064.98,2835.64,2745.14,3016.64,599.79,621.10,42.74,0000 0000 0000 0000 000000
2015-11-19 03:59:24,0.21,1.96,0.00,15.15,19.67,23.55,15.30,47.65,1031.82,2064.97,2831.88,2742.36,3013.53,600.23,621.59,42.79,0000 0000 0000 0000 000000
2015-11-19 04:04:25,0.21,1.97,0.00,15.16,19.69,23.55,15.20,47.34,1031.77,2064.95,2828.24,2739.64,3010.57,599.53,620.88,42.84,0000 0000 0000 0000 000000
2015-11-19 04:09:26,0.21,1.98,0.00,15.19,19.69,23.49,15.13,47.48,1031.77,2064.95,2824.59,2736.89,3007.59,599.73,621.09,42.89,0000 0000 0000 0000 000000
2015-11-19 04:14:27,0.20,1.99,0.00,15.22,19.69,23.55,15.28,47.66,1031.76,2064.96,2821.13,2734.33,3004.85,600.29,621.43,42.94,0000 0000 0000 0000 000000
2015-11-19 04:19:29,0.20,2.00,0.00,15.18,19.70,23.58,15.25,47.62,1031.77,2064.97,2817.63,2731.69,3001.99,600.41,621.74,42.99,0000 0000 0000 0000 000000
2015-11-19 04:24:30,0.21,2.01,0.00,15.20,19.72,23.62,15.15,47.52,1031.78,2064.95,2814.12,2729.05,2999.07,599.93,621.22,43.04,0000 0000 0000 0000 000000
2015-11-19 04:29:31,0.21,2.02,0.00,15.21,19.72,23.68,15.17,47.56,1031.76,2064.91,2810.49,2726.34,2996.08,599.84,621.25,43.09,0000 0000 0000 0000 000000
2015-11-19 04:34:33,0.19,2.03,0.00,15.22,19.72,23.62,15.15,47.58,1031.76,2064.65,2806.78,2723.60,2993.10,599.82,621.00,43.14,0000 0000 0000 0000 000000
2015-11-19 04:39:34,0.19,2.04,0.00,15.21,19.72,23.63,15.23,47.88,1031.58,2064.48,2803.23,2720.96,2990.14,599.79,620.98,43.19,0000 0000 0000 0000 000000
2015-11-19 04:44:35,0.27,2.06,0.00,15.22,19.72,23.65,15.19,48.01,1031.42,2064.47,2799.26,2717.59,2986.54,600.01,621.04,43.25,0000 0000 0000 0000 000000
2015-11-19 04:49:37,0.24,2.07,0.00,15.24,19.74,23.61,15.34,48.07,1031.58,2064.35,2795.28,2714.13,2982.83,600.22,621.26,43.30,0000 0000 0000 0000 000000
2015-11-19 04:54:38,0.24,2.08,0.00,15.22,19.74,23.62,15.19,47.73,1031.38,2064.27,2791.52,2711.08,2979.54,599.84,620.96,43.35,0000 0000 0000 0000 000000
2015-11-19 04:59:39,0.22,2.09,0.00,15.22,19.74,23.66,15.26,47.77,1031.65,2064.13,2787.63,2707.96,2976.15,600.04,621.22,43.40,0000 0000 0000 0000 000000
2015-11-19 05:04:41,0.23,2.10,0.00,15.22,19.74,23.66,15.17,47.60,1031.68,2064.11,2783.87,2705.08,2972.99,599.74,620.91,43.45,0000 0000 0000 0000 000000
2015-11-19 05:09:42,0.22,2.12,0.00,15.25,19.74,23.66,15.14,47.44,1031.65,2064.07,2780.14,2702.33,2969.96,600.13,621.21,43.50,0000 0000 0000 0000 000000
2015-11-19 05:14:43,0.21,2.13,0.00,15.23,19.75,23.64,15.25,47.83,1031.65,2064.08,2776.58,2699.66,2967.05,600.37,621.55,43.55,0000 0000 0000 0000 000000
2015-11-19 05:19:44,0.21,2.14,0.00,15.23,19.76,23.71,15.18,47.87,1031.56,2064.08,2773.03,2697.00,2964.15,600.40,621.52,43.60,0000 0000 0000 0000 000000
2015-11-19 05:24:45,0.20,2.15,0.00,15.25,19.77,23.67,15.13,47.63,1031.42,2064.11,2769.72,2694.53,2961.46,600.01,621.07,43.65,0000 0000 0000 0000 000000
2015-11-19 05:29:46,0.19,2.16,0.00,15.24,19.77,23.75,15.16,47.67,1031.31,2064.09,2766.44,2692.08,2958.72,599.87,620.74,43.70,0000 0000 0000 0000 000000
2015-11-19 05:34:48,0.21,2.17,0.00,15.25,19.77,23.75,15.15,47.73,1031.27,2064.04,2762.95,2689.45,2955.89,600.11,620.94,43.75,0000 0000 0000 0000 000000
2015-11-19 05:39:49,0.31,2.18,0.00,15.22,19.77,23.72,15.15,47.83,1031.27,2064.06,2758.44,2685.60,2951.90,599.80,620.71,43.80,0000 0000 0000 0000 000000
2015-11-19 05:44:50,0.21,2.20,0.00,15.26,19.79,23.76,15.19,48.41,1031.26,2064.03,2754.72,2682.69,2948.75,599.92,620.87,43.85,0000 0000 0000 0000 000000
2015-11-19 05:49:52,0.23,2.21,0.00,15.24,19.79,23.71,15.19,48.27,1031.26,2064.01,2751.09,2679.91,2945.68,599.90,620.75,43.90,0000 0000 0000 0000 000000
2015-11-19 05:54:53,0.22,2.22,0.00,15.23,19.79,23.75,15.21,48.32,1031.25,2064.01,2747.50,2677.20,2942.69,599.80,620.80,43.95,0000 0000 0000 0000 000000
2015-11-19 05:59:55,0.22,2.23,0.00,15.24,19.79,23.74,15.22,48.76,1031.23,2064.01,2743.85,2674.49,2939.70,599.96,620.84,44.00,0000 0000 0000 0000 000000
2015-11-19 06:04:56,0.24,2.24,0.00,15.24,19.79,23.75,15.27,48.53,1031.01,2064.01,2740.12,2671.62,2936.52,599.73,620.46,44.05,0000 0000 0000 0000 000000
2015-11-19 06:09:57,0.23,2.25,0.00,15.24,19.79,23.78,15.27,48.48,1031.03,2064.01,2736.40,2668.74,2933.39,600.00,620.87,44.10,0000 0000 0000 0000 000000
2015-11-19 06:14:58,0.22,2.27,0.00,15.19,19.79,23.74,15.17,48.17,1031.20,2064.00,2732.79,2666.03,2930.41,599.80,620.77,44.16,0000 0000 0000 0000 000000
2015-11-19 06:19:59,0.23,2.28,0.00,15.24,19.79,23.73,15.22,48.20,1031.20,2064.00,2729.15,2663.32,2927.46,599.99,620.81,44.21,0000 0000 0000 0000 000000
2015-11-19 06:25:01,0.22,2.29,0.00,15.23,19.79,23.75,15.26,48.34,1031.14,2064.00,2725.45,2660.55,2924.42,600.09,620.86,44.26,0000 0000 0000 0000 000000
2015-11-19 06:30:02,0.22,2.30,0.00,15.21,19.79,23.75,15.25,47.98,1031.24,2064.00,2721.96,2657.95,2921.49,600.02,620.97,44.31,0000 0000 0000 0000 000000
2015-11-19 06:35:03,0.21,2.31,0.00,15.21,19.79,23.75,15.30,48.32,1031.12,2064.00,2718.50,2655.37,2918.70,599.82,620.77,44.36,0000 0000 0000 0000 000000
2015-11-19 06:40:05,0.21,2.32,0.00,15.22,19.79,23.74,15.24,48.48,1031.01,2064.00,2715.05,2652.76,2915.86,599.85,620.62,44.41,0000 0000 0000 0000 000000
2015-11-19 06:45:06,0.25,2.33,0.00,15.22,19.79,23.71,15.21,48.31,1030.90,2064.00,2711.23,2649.95,2912.73,599.90,620.69,44.46,0000 0000 0000 0000 000000
2015-11-19 06:50:07,0.22,2.35,0.00,15.18,19.79,23.74,15.13,47.97,1030.80,2064.00,2707.62,2647.19,2909.63,599.80,620.39,44.51,0000 0000 0000 0000 000000
2015-11-19 06:55:08,0.21,2.36,0.00,15.21,19.79,23.68,15.24,47.86,1030.85,2064.00,2704.27,2644.60,2906.85,599.63,620.45,44.56,0000 0000 0000 0000 000000
2015-11-19 07:00:09,0.21,2.37,0.00,15.20,19.79,23.71,15.12,48.30,1030.96,2064.00,2701.02,2642.05,2904.02,599.78,620.57,44.61,0000 0000 0000 0000 000000
2015-11-19 07:05:11,0.22,2.38,0.00,15.17,19.79,23.74,15.21,48.43,1031.04,2064.00,2697.51,2639.43,2901.16,599.59,620.42,44.66,0000 0000 0000 0000 000000
2015-11-19 07:10:12,0.22,2.39,0.00,15.17,19.79,23.69,15.17,48.17,1030.85,2064.00,2694.01,2636.84,2898.29,599.83,620.62,44.71,0000 0000 0000 0000 000000
2015-11-19 07:15:14,0.22,2.40,0.00,15.18,19.78,23.73,15.29,48.33,1030.93,2064.00,2690.43,2634.19,2895.40,599.90,620.70,44.76,0000 0000 0000 0000 000000
2015-11-19 07:20:15,0.23,2.41,0.00,15.21,19.77,23.71,15.15,47.91,1031.12,2064.00,2686.85,2631.52,2892.50,600.16,621.05,44.81,0000 0000 0000 0000 000000
2015-11-19 07:25:16,0.23,2.43,0.00,15.16,19.77,23.70,15.23,48.30,1031.15,2064.00,2683.22,2628.78,2889.43,600.04,621.02,44.86,0000 0000 0000 0000 000000
2015-11-19 07:30:17,0.22,2.44,0.00,15.17,19.77,23.67,15.22,48.02,1031.24,2064.00,2679.76,2626.16,2886.54,599.80,620.79,44.91,0000 0000 0000 0000 000000
2015-11-19 07:35:19,0.22,2.45,0.00,15.19,19.77,23.70,15.26,48.02,1031.26,2064.00,2676.22,2623.63,2883.72,600.26,621.21,44.96,0000 0000 0000 0000 000000
2015-11-19 07:40:20,0.22,2.46,0.00,15.18,19.77,23.72,15.19,47.76,1031.26,2064.00,2672.70,2621.22,2880.86,600.53,621.61,45.01,0000 0000 0000 0000 000000
2015-11-19 07:45:22,0.22,2.47,0.00,15.18,19.77,23.71,15.18,48.04,1031.26,2064.00,2669.13,2618.61,2878.18,599.89,620.83,45.06,0000 0000 0000 0000 000000
2015-11-19 07:50:23,0.21,2.48,0.00,15.19,19.77,23.74,15.26,48.24,1031.26,2064.00,2665.67,2616.11,2875.42,600.58,621.36,45.11,0000 0000 0000 0000 000000
2015-11-19 07:55:25,0.21,2.49,0.00,15.23,19.77,23.70,15.17,47.73,1031.26,2064.00,2662.32,2613.62,2872.72,600.09,621.02,45.17,0000 0000 0000 0000 000000
2015-11-19 08:00:26,0.20,2.50,0.00,15.20,19.77,23.66,15.23,47.68,1031.25,2064.00,2659.13,2611.26,2870.09,599.84,620.83,45.22,0000 0000 0000 0000 000000
2015-11-19 08:05:27,0.22,2.52,0.00,15.21,19.77,23.63,15.16,47.82,1031.26,2064.00,2655.71,2608.76,2867.31,599.59,620.61,45.27,0000 0000 0000 0000 000000
2015-11-19 08:10:28,0.21,2.53,0.00,15.23,19.77,23.72,15.16,47.63,1031.25,2064.00,2652.25,2606.26,2864.62,599.95,620.79,45.32,0000 0000 0000 0000 000000
2015-11-19 08:15:29,0.22,2.54,0.00,15.23,19.77,23.67,15.17,47.72,1031.23,2064.00,2648.94,2603.80,2861.90,600.38,621.24,45.37,0000 0000 0000 0000 000000
2015-11-19 08:20:30,0.22,2.55,0.00,15.24,19.78,23.70,15.28,48.08,1031.24,2064.00,2645.49,2601.24,2859.02,600.31,621.20,45.42,0000 0000 0000 0000 000000
2015-11-19 08:25:32,0.22,2.56,0.00,15.23,19.79,23.72,15.17,47.58,1031.25,2064.00,2642.09,2598.76,2856.29,599.60,620.65,45.47,0000 0000 0000 0000 000000
2015-11-19 08:30:33,0.22,2.57,0.00,15.27,19.79,23.68,15.08,47.79,1031.12,2064.00,2638.75,2596.26,2853.53,600.09,620.85,45.52,0000 0000 0000 0000 000000
2015-11-19 08:35:35,0.21,2.58,0.00,15.25,19.79,23.72,15.19,47.92,1030.88,2064.00,2635.35,2593.71,2850.77,599.90,620.54,45.57,0000 0000 0000 0000 000000
2015-11-19 08:40:36,0.23,2.59,0.00,15.24,19.79,23.68,15.15,48.02,1030.93,2064.00,2631.95,2591.18,2847.95,599.70,620.41,45.62,0000 0000 0000 0000 000000
2015-11-19 08:45:37,0.22,2.61,0.00,15.27,19.79,23.69,15.20,48.20,1030.99,2063.98,2628.47,2588.53,2845.07,600.09,620.92,45.67,0000 0000 0000 0000 000000
2015-11-19 08:50:39,0.22,2.62,0.00,15.27,19.80,23.72,15.25,47.92,1031.01,2063.97,2624.99,2586.01,2842.28,600.26,620.94,45.72,0000 0000 0000 0000 000000
2015-11-19 08:55:40,0.21,2.63,0.00,15.29,19.81,23.72,15.20,47.95,1031.14,2063.98,2621.81,2583.58,2839.60,599.70,620.41,45.77,0000 0000 0000 0000 000000
2015-11-19 09:00:42,0.22,2.64,0.00,15.26,19.82,23.70,15.20,47.80,1031.14,2063.98,2618.52,2581.13,2836.91,599.99,620.75,45.82,0000 0000 0000 0000 000000
2015-11-19 09:05:43,0.21,2.65,0.00,15.31,19.82,23.70,15.10,47.77,1031.12,2063.97,2615.25,2578.69,2834.24,599.98,620.72,45.87,0000 0000 0000 0000 000000
2015-11-19 09:10:44,0.21,2.66,0.00,15.30,19.82,23.76,15.18,48.08,1031.10,2063.98,2612.05,2576.32,2831.63,599.87,620.54,45.92,0000 0000 0000 0000 000000
2015-11-19 09:15:45,0.21,2.67,0.00,15.32,19.82,23.72,15.18,48.08,1031.10,2063.97,2608.81,2573.98,2828.99,599.77,620.29,45.97,0000 0000 0000 0000 000000
2015-11-19 09:20:47,0.20,2.68,0.00,15.28,19.82,23.65,15.16,47.89,1031.15,2063.98,2605.69,2571.64,2826.39,600.02,620.65,46.02,0000 0000 0000 0000 000000
2015-11-19 09:25:48,0.21,2.69,0.00,15.34,19.83,23.72,15.18,47.95,1031.22,2063.96,2602.51,2569.26,2823.83,600.10,620.73,46.08,0000 0000 0000 0000 000000
2015-11-19 09:30:49,0.21,2.70,0.00,15.32,19.84,23.72,15.22,47.95,1031.20,2063.94,2599.31,2566.93,2821.18,599.89,620.57,46.13,0000 0000 0000 0000 000000
2015-11-19 09:35:51,0.20,2.71,0.00,15.33,19.84,23.77,15.20,48.08,1031.25,2063.95,2596.22,2564.65,2818.69,599.97,620.64,46.18,0000 0000 0000 0000 000000
2015-11-19 09:40:52,0.20,2.72,0.00,15.31,19.84,23.73,15.17,47.78,1031.19,2063.92,2593.07,2562.30,2816.14,600.05,620.64,46.23,0000 0000 0000 0000 000000
2015-11-19 09:45:53,0.20,2.73,0.00,15.36,19.84,23.73,15.19,48.09,1031.09,2063.92,2590.00,2560.04,2813.71,600.02,620.57,46.28,0000 0000 0000 0000 000000
2015-11-19 09:50:55,0.20,2.74,0.00,15.36,19.85,23.74,15.16,47.98,1030.94,2063.94,2586.84,2557.90,2811.16,600.01,620.54,46.33,0000 0000 0000 0000 000000
2015-11-19 09:55:56,0.18,2.75,0.00,15.35,19.85,23.73,15.20,48.08,1030.81,2063.75,2583.66,2555.56,2808.51,599.99,620.26,46.38,0000 0000 0000 0000 000000
2015-11-19 10:00:57,0.20,2.76,0.00,15.35,19.86,23.76,15.13,47.79,1030.78,2063.57,2580.49,2553.20,2805.93,600.08,620.51,46.43,0000 0000 0000 0000 000000
2015-11-19 10:05:58,0.19,2.77,0.00,15.37,19.87,23.72,15.10,48.02,1030.78,2063.28,2577.26,2550.89,2803.30,599.89,620.18,46.48,0000 0000 0000 0000 000000
2015-11-19 10:11:00,0.20,2.78,0.00,15.41,19.87,23.77,15.18,48.26,1030.78,2063.30,2574.09,2548.53,2800.77,599.80,620.08,46.53,0000 0000 0000 0000 000000
2015-11-19 10:16:01,0.21,2.80,0.00,15.38,19.87,23.80,15.16,47.99,1030.78,2063.36,2570.93,2546.26,2798.22,600.07,620.38,46.58,0000 0000 0000 0000 000000
2015-11-19 10:21:03,0.21,2.81,0.00,15.39,19.87,23.79,15.18,48.20,1030.78,2063.22,2567.73,2543.92,2795.61,599.69,620.00,46.63,0000 0000 0000 0000 000000
2015-11-19 10:26:04,0.19,2.82,0.00,15.40,19.89,23.84,15.16,47.98,1030.68,2063.14,2564.53,2541.55,2793.05,599.94,620.15,46.68,0000 0000 0000 0000 000000
2015-11-19 10:31:06,0.20,2.83,0.00,15.41,19.89,23.80,15.14,47.92,1030.55,2063.10,2561.51,2539.33,2790.54,600.13,620.30,46.73,0000 0000 0000 0000 000000
2015-11-19 10:36:07,0.19,2.84,0.00,15.39,19.89,23.82,15.15,48.14,1030.54,2063.07,2558.76,2537.14,2788.12,599.91,620.18,46.78,0000 0000 0000 0000 000000
2015-11-19 10:41:08,0.19,2.85,0.00,15.41,19.89,23.80,15.18,48.24,1030.37,2063.05,2555.93,2535.01,2785.68,599.93,619.89,46.83,0000 0000 0000 0000 000000
2015-11-19 10:46:10,0.21,2.86,0.00,15.40,19.89,23.85,15.19,48.26,1030.32,2063.03,2552.96,2532.72,2783.18,600.02,620.00,46.88,0000 0000 0000 0000 000000
2015-11-19 10:51:11,0.20,2.87,0.00,15.42,19.89,23.86,15.21,48.27,1030.30,2063.02,2549.89,2530.45,2780.60,599.90,619.80,46.93,0000 0000 0000 0000 000000
2015-11-19 10:56:12,0.19,2.88,0.00,15.40,19.90,23.86,15.20,48.31,1030.29,2063.02,2546.98,2528.31,2778.19,600.35,620.32,46.98,0000 0000 0000 0000 000000
2015-11-19 11:01:14,0.20,2.89,0.00,15.38,19.90,23.88,15.16,48.10,1030.29,2063.01,2544.09,2526.08,2775.78,599.68,619.72,47.03,0000 0000 0000 0000 000000
2015-11-19 11:06:15,0.18,2.90,0.00,15.39,19.91,23.85,15.18,48.33,1030.29,2063.00,2541.40,2524.03,2773.48,600.33,620.32,47.09,0000 0000 0000 0000 000000
2015-11-19 11:11:16,0.19,2.91,0.00,15.39,19.91,23.82,15.22,48.18,1030.30,2063.00,2538.63,2522.00,2771.25,600.22,620.21,47.14,0000 0000 0000 0000 000000
2015-11-19 11:16:18,0.18,2.92,0.00,15.39,19.91,23.85,15.07,48.15,1030.34,2063.00,2535.96,2520.07,2769.06,599.52,619.66,47.19,0000 0000 0000 0000 000000
2015-11-19 11:21:19,0.18,2.92,0.00,15.38,19.90,23.86,15.21,48.23,1030.48,2063.00,2533.23,2518.07,2766.87,600.03,620.19,47.24,0000 0000 0000 0000 000000
2015-11-19 11:26:20,0.17,2.93,0.00,15.38,19.91,23.89,15.17,48.14,1030.66,2063.00,2530.66,2516.24,2764.78,599.98,620.19,47.29,0000 0000 0000 0000 000000
2015-11-19 11:31:21,0.18,2.94,0.00,15.41,19.91,23.90,15.10,48.03,1030.78,2063.01,2527.98,2514.30,2762.64,599.86,620.05,47.34,0000 0000 0000 0000 000000
2015-11-19 11:36:22,0.18,2.95,0.00,15.38,19.91,23.88,15.25,48.33,1030.76,2063.00,2525.32,2512.38,2760.49,600.34,620.61,47.39,0000 0000 0000 0000 000000
2015-11-19 11:41:24,0.19,2.96,0.00,15.40,19.91,23.90,15.19,48.27,1030.59,2063.00,2522.59,2510.38,2758.31,600.02,620.16,47.44,0000 0000 0000 0000 000000
2015-11-19 11:46:25,0.18,2.97,0.00,15.40,19.92,23.87,15.17,48.20,1030.39,2063.00,2519.92,2508.44,2756.12,600.06,620.13,47.49,0000 0000 0000 0000 000000
2015-11-19 11:51:27,0.19,2.98,0.00,15.41,19.92,23.89,15.18,48.17,1030.40,2063.00,2517.22,2506.43,2753.92,600.10,619.99,47.54,0000 0000 0000 0000 000000
2015-11-19 11:56:28,0.18,2.99,0.00,15.39,19.92,23.84,15.27,48.27,1030.56,2063.00,2514.48,2504.38,2751.72,600.11,620.38,47.59,0000 0000 0000 0000 000000
2015-11-19 12:01:29,0.18,3.00,0.00,15.41,19.92,23.90,15.19,48.02,1030.71,2063.00,2511.77,2502.35,2749.63,599.74,619.91,47.64,0000 0000 0000 0000 000000
2015-11-19 12:06:31,0.19,3.01,0.00,15.48,19.92,23.89,15.15,48.01,1030.61,2063.00,2509.10,2500.38,2747.41,599.87,619.95,47.69,0000 0000 0000 0000 000000
2015-11-19 12:11:33,0.18,3.02,0.00,15.46,19.92,23.85,15.18,48.03,1030.44,2062.99,2506.34,2498.42,2745.21,599.83,619.86,47.74,0000 0000 0000 0000 000000
2015-11-19 12:16:34,0.18,3.03,0.00,15.43,19.92,23.90,15.22,48.20,1030.30,2062.98,2503.70,2496.52,2743.05,600.21,620.11,47.79,0000 0000 0000 0000 000000
2015-11-19 12:21:36,0.17,3.04,0.00,15.42,19.93,23.83,15.17,48.17,1030.30,2062.98,2501.21,2494.72,2740.96,600.15,620.10,47.84,0000 0000 0000 0000 000000
2015-11-19 12:26:38,0.18,3.05,0.00,15.42,19.94,23.86,15.20,48.06,1030.29,2062.99,2498.67,2492.84,2738.86,599.61,619.48,47.89,0000 0000 0000 0000 000000
2015-11-19 12:31:39,0.17,3.06,0.00,15.43,19.94,23.86,15.17,47.92,1030.28,2062.99,2496.15,2491.07,2736.82,599.75,619.64,47.94,0000 0000 0000 0000 000000
2015-11-19 12:36:40,0.17,3.06,0.00,15.45,19.94,23.84,15.17,48.06,1030.28,2062.98,2493.67,2489.16,2734.80,600.06,619.91,48.00,0000 0000 0000 0000 000000
2015-11-19 12:41:41,0.18,3.07,0.00,15.42,19.94,23.92,15.24,48.10,1030.27,2062.98,2491.12,2487.29,2732.65,600.09,620.04,48.05,0000 0000 0000 0000 000000
2015-11-19 12:46:43,0.16,3.08,0.00,15.42,19.94,23.84,15.16,48.05,1030.06,2062.98,2488.68,2485.49,2730.67,600.30,620.01,48.10,0000 0000 0000 0000 000000
2015-11-19 12:51:44,0.18,3.09,0.00,15.43,19.94,23.92,15.16,48.07,1029.87,2062.98,2486.17,2483.63,2728.60,599.75,619.38,48.15,0000 0000 0000 0000 000000
2015-11-19 12:56:45,0.17,3.10,0.00,15.43,19.94,23.86,15.20,47.98,1029.84,2062.98,2483.56,2481.75,2726.54,600.25,619.88,48.20,0000 0000 0000 0000 000000